Regional Weather Roundup
Issued by NWS

Home | Current Version | Previous Version | Graphics & Text | Print | Product List | Glossary On
Versions: 1 2 3 4 5 6 7 8 9 10 11 12 13 14 15 16 17 18 19 20 21 22 23 24 25 26 27 28 29 30 31 32 33 34 35 36 37 38 39 40 41 42 43 44 45 46 47 48 49 50
637
ASUS45 KCYS 250510
RWRWY

WYOMING REGIONAL WEATHER ROUNDUP
NATIONAL WEATHER SERVICE CHEYENNE WY
1100 PM MDT MON APR 24 2017

NOTE:  "FAIR" INDICATES FEW OR NO CLOUDS BELOW 12,000 FEET
WITH NO SIGNIFICANT WEATHER AND/OR OBSTRUCTIONS TO VISIBILITY.

WYZ001-250600-
YELLOWSTONE NATIONAL PARK

CITY           SKY/WX    TMP DP  RH WIND       PRES   REMARKS
LK YELLOWSTONE   N/A     30  30 100 CALM      29.64F
W YELLOWSTONE  NOT AVBL

$$
WYZ002>013-054>058-071-098>099-250600-
NORTHERN WYOMING

CITY           SKY/WX    TMP DP  RH WIND       PRES   REMARKS
JACKSON        CLOUDY    34  32  93 S6        29.65S WCI  29
CODY           CLOUDY    39  35  86 N8        29.60S WCI  33
GREYBULL       CLOUDY    45  40  82 NW20      29.51S
WORLAND        LGT RAIN  45  43  93 N8        29.52S
SHERIDAN       LGT RAIN  42  38  85 NE10      29.60S
BUFFALO        LGT RAIN  40  36  86 NW14G28   29.57F WCI  32
GILLETTE       CLOUDY    45  42  89 E12       29.53F
HULETT         DRIZZLE   41  37  87 NE14G20   29.60F
NEWCASTLE      CLOUDY    48  34  57 E14G20    29.55F

$$
WYZ014>020-022>026-101>103-250600-
CENTRAL WYOMING

CITY           SKY/WX    TMP DP  RH WIND       PRES   REMARKS
BIG PINEY      CLOUDY    34  27  75 NW10      29.67S WCI  26
PINEDALE       CLOUDY    32  32 100 NW8       29.67R WCI  25
DUBOIS         MOCLDY    34  27  75 NW14      29.59R WCI  24
LANDER         FAIR      40  35  83 E3        29.54S
RIVERTON       CLOUDY    40  38  93 SW8       29.56R WCI  34
CASPER         CLOUDY    42  37  82 S10       29.49F
DOUGLAS        MOCLDY    44  41  89 S9        29.53F

$$
WYZ021-027>030-104>119-250600-
SOUTHERN WYOMING

CITY           SKY/WX    TMP DP  RH WIND       PRES   REMARKS
EVANSTON       MOCLDY    32  32 100 SW8       29.75S WCI  25
KEMMERER         N/A     32  30  93 W16       29.71R WCI  21
FORT BRIDGER   FAIR      33  33 100 W16G24    29.75F WCI  23
ROCK SPRINGS   CLOUDY    35  32  88 SW8       29.67S WCI  29
DIXON            N/A     37  34  91 CALM      29.73R
RAWLINS        CLOUDY    36  33  89 SW18G25   29.62R WCI  26
SARATOGA       MOCLDY    36  36 100 W12       29.67S WCI  27
LARAMIE        CLOUDY    32  32 100 SE14      29.62F WCI  22
CHEYENNE       MOCLDY    34  32  92 NW15G25   29.64R FOG     WCI  24
TORRINGTON     LGT RAIN  48  46  93 W20G28    29.59R
PINE BLUFFS    FAIR      43  41  93 CALM      29.57F

$$




USA.gov is the U.S. government's official web portal to all federal, state and local government web resources and services.